User: anonymous   Login
Location: Unspecified
(0.0000°N, 0.0000°E)
Time: 00:02:17
(UTC+00:00)
Language:

PRAETORIAN SDA_608 - Orbit

View from above orbital plane
View from above orbital plane
View from above satellite
View from above satellite

Ground track
Ground track

The orbit is defined by the following mean orbital elements,

1 65572U          26145.38506696 +.00000000 +00000-0 +64693-4 0 00001
2 65572  81.3069  31.9057 0005892 253.8594 106.1914 13.84281886    00
Epoch (UTC): 25 May 2026 09:14:29
Eccentricity: 0.0005892
inclination: 81.3069°
perigee height: 944 km
apogee height: 953 km
right ascension of ascending node: 31.9057°
argument of perigee: 253.8594°
revolutions per day: 13.84281886
mean anomaly at epoch: 106.1914°

The dashed part of the orbit path shows where the satellite is in the earth's shadow,  

DLR